Погода в Татарской Пенделке

Россия / Пензенская область     53°01′56″N   46°14′21″E
темп.,
°C
ветер,
м/с
пор.,
м/с
влажн.,
%
обл.,
%
осадки,
мм/ч
давл.,
гПа
погр.,
м
22 апреля, чт
чт2200:00+5ююв4898100 0.0 1020252
03:00+5ююв5894100 0.0 1021319
06:00+5ю5891100 0.0 1022450
09:00+9ю577865 0.0 1022590
12:00+14ююз695222 0.5 10211871
15:00+14зюз4753100 0.9 10211081
18:00+12юз246334 0.7 102289
21:00+8зсз11755 0.8 102310
23 апреля, пт
пт2300:00+7в00795 0.0 102310
03:00+6юв22845 0.0 102410
06:00+7юв22845 0.0 102430
09:00+12юв336738 0.0 1023521
12:00+15юв435191 0.2 10221682
15:00+15юв4347100 0.2 10201749
18:00+12вюв3567100 0.6 1020208
21:00+10вюв2579100 0.6 1019122
24 апреля, сб
сб2400:00+8в2283100 0.0 101721
03:00+7всв1184100 0.0 101510
06:00+8юв2384100 0.0 1014110
09:00+11ю3470100 0.0 1013707
12:00+14ююз455691 0.6 10101513
15:00+15ююз6754100 1.9 10091563
18:00+11зюз7978100 1.8 1009702
21:00+7з5886100 2.1 1010964
25 апреля, вс
вс2500:00+4з598872 0.1 1011628
03:00+3юз5696100 2.3 1011461
06:00+4зюз71096100 3.6 1012798
09:00+4з598794 4.9 1013628
12:00+9з565897 1.2 10141606
15:00+10з465087 2.0 10141970
18:00+7з697399 1.1 1016770
21:00+4зюз49817 1.5 1018242
26 апреля, пн
пн2600:00+3зюз37820 0.0 1019141
03:00+2зюз35845 0.0 101981
06:00+3юз258028 0.0 1020165
09:00+8юз46555 0.0 1019985
12:00+11юз5645100 0.0 10181981
15:00+11юз4543100 0.0 10171900
18:00+9ю3458100 0.0 1016113
21:00+6ю376439 0.0 1015115